Regional Weather Roundup
Issued by NWS San Diego, CA

Home | Current Version | Previous Version | Text Only | Print | Product List | Glossary On
Versions: 1 2 3 4 5 6 7 8 9 10 11 12 13 14 15 16 17 18 19 20 21 22 23 24 25 26 27 28 29 30 31 32 33 34 35 36 37 38 39 40 41 42 43 44 45 46
049
ASUS46 KSGX 242211
RWRSGX

SAN DIEGO HOURLY WEATHER ROUNDUP
NATIONAL WEATHER SERVICE SAN DIEGO CA
300 PM PDT SUN JUL 24 2016

NOTE: "FAIR" INDICATES FEW OR NO CLOUDS BELOW 12,000 FEET WITH NO
SIGNIFICANT WEATHER AND/OR OBSTRUCTIONS TO VISIBILITY.

CAZ042-043-060-061-PZZ750-775-242300-

GREATER SAN DIEGO AREA

CITY           SKY/WX    TMP DP  RH WIND       PRES   REMARKS
LINDBERGH FLD  PTSUNNY   75  64  68 SW8       29.92F
POINT LOMA       N/A     81  64  55 SW9         N/A
NATIONAL CITY    N/A     78  68  72 SW6       29.92F
CHULA VISTA      N/A     79  69  71 W7        29.83F
IMPERIAL BEACH SUNNY     78  66  66 SW15      29.91S
BROWN FIELD    SUNNY     84  64  50 NW8       29.91S
MIRAMAR MCAS   MOSUNNY   84  60  44 W7        29.91F
MONTGOMERY FLD SUNNY     83  60  45 S10       29.91F

$$

NORTH SAN DIEGO COUNTY

CITY           SKY/WX    TMP DP  RH WIND       PRES   REMARKS
CAMP PENDLETON SUNNY     85  62  46 MISG      29.90F
OCEANSIDE AP   SUNNY     80  63  55 W8        29.90F
OCEANSIDE HBR    N/A     74  68  81 SW2       29.93F
VISTA            N/A     86  65  50 SW3       29.88F
CARLSBAD       SUNNY     78  66  66 W8        29.90F
DEL MAR          N/A     77  69  75 CALM      29.93F
LA JOLLA SCRIP   N/A     74  68  82 SW3       29.90F
FALLBROOK        N/A     90  60  36 S6        29.88F
ESCONDIDO        N/A     92  66  42 W9        29.90F
POWAY            N/A     93  65  38 SW3       29.88F HX  95

$$

EAST SAN DIEGO COUNTY

CITY           SKY/WX    TMP DP  RH WIND       PRES   REMARKS
RAMONA         SUNNY     94  57  28 NW9       29.93F
SANTEE LAKES     N/A     88  65  46 S10       29.87F
LA MESA          N/A     83  63  51 CALM      29.83F
JAMUL            N/A     90  66  45 CALM      29.88F
DESCANSO N       N/A     90  58  33 CALM      29.73S
CAMPO            N/A     96  51  21 SW15G29   29.94F

$$

ORANGE COUNTY AND THE LOS ANGELES BASIN

CITY           SKY/WX    TMP DP  RH WIND       PRES   REMARKS
JOHN WAYNE AP  MOSUNNY   85  55  35 S13       29.90F
LAGUNA BEACH     N/A     84  67  55 S8        29.86F
LAKE FOREST FR   N/A     92  48  21 SW5       29.78F
HUNTINGTON BCH   N/A     80  71  72 S8        29.93F
LOS ALAMITOS   MOSUNNY   83  64  52 S12       29.90F
FULLERTON      SUNNY     91  52  26 SW10      29.89F
LONG BEACH     SUNNY     80  65  59 S8        29.91F
L.A. AP        MOSUNNY   82  65  56 W14       29.91F
L.A. DOWNTOWN  SUNNY     90  55  30 VRB5      29.90F

$$

THE INLAND EMPIRE

CITY           SKY/WX    TMP DP  RH WIND       PRES   REMARKS
CORONA         SUNNY     95  55  26 NW20      29.87F
CHINO          MOSUNNY   98  55  23 W17G25    29.90F HX  96
ONTARIO        MOSUNNY   96  55  25 W15G25    29.90F
SAN BERNARDINO SUNNY    100  48  17 W9        29.90F HX  97
RIVERSIDE AP   SUNNY     97  53  22 W12G18    29.89F
MORENO VALLEY    N/A     99  56  23 NW8       28.05F HX  98
MARCH ARB      SUNNY     96  57  27 NW14      29.93F
HORSETHIEF CYN   N/A     98  50  19 E7        29.87F
PERRIS           N/A     96  57  27 NW6       29.93F
HEMET EAST       N/A     98  41  14 S8        29.76F
FRENCH VALLEY  FAIR      91  45  19 SW12G20   29.93S
TEMECULA         N/A     92  54  27 SW6       29.87F

$$

SAN BERNARDINO AND RIVERSIDE COUNTY MOUNTAINS

CITY           SKY/WX    TMP DP  RH WIND       PRES   REMARKS
BIG BEAR AP    SUNNY     82  39  21 W12       30.29F
ANGELUS OAKS     N/A     84  48  28 CALM      29.73S
PINE COVE        N/A     83  46  26 W3        29.81F

$$

SOUTHERN DESERT INCLUDING THE COACHELLA VALLEY

CITY           SKY/WX    TMP DP  RH WIND       PRES   REMARKS
PALM SPRINGS   SUNNY    104  66  29 VRB7      29.79F HX 109
THOUSAND PALMS   N/A    105  67  29 SE5       29.76F HX 110
PALM DESERT      N/A    107  69  29 CALM      29.57F HX 115
THERMAL        PTSUNNY  106  61  23 S10       29.73F HX 107
BLYTHE         SUNNY    109  60  20 S17G25    29.78F HX 110
IMPERIAL AP    PTSUNNY  108  69  28 VRB5      29.74F HX 116
EL CENTRO NAS  PTSUNNY  106  64  25 S8        29.76F HX 109
YUMA AZ        PTSUNNY  107  59  20 S16       29.78F HX 108
MEXICALI       PTSUNNY  108  52  15 S10       29.76F HX 105

$$

UPPER DESERT

CITY           SKY/WX    TMP DP  RH WIND       PRES   REMARKS
VICTORVILLE AP MOSUNNY  104  34   9 S9G17     29.94F HX  97
HESPERIA         N/A     97  44  16 SW16      29.89F
PALMDALE       CLOUDY    92  39  15 SW13      29.94F HAZE
LANCASTER      MOSUNNY   99  36  11 SW24G38   29.93F HAZE
EDWARDS AFB    PTSUNNY  102  20   5 SW32      29.88F
DAGGETT        SUNNY    109  33   7 NE6       29.84F HX 102
29 PALMS N     MOSUNNY  106  45  12 SW21G26   29.93F HX 101
NEEDLES        SUNNY    111  56  16 S13G20    29.79F HX 110

$$

REGIONAL REPORTS

CITY           SKY/WX    TMP DP  RH WIND       PRES   REMARKS
SANTA BARBARA  SUNNY     74  66  76 S12       29.91F
SANDBERG       SUNNY     89  39  17 S26G38    30.13F
LAS VEGAS NV   MOSUNNY  111  29   6 SW13G21   29.79F HX 103
PHOENIX AZ     PTSUNNY  106  56  19 W16       29.81F HX 105
TIJUANA        PTSUNNY   84  59  42 NW13      29.93S
ENSENADA NW      N/A     74  32  21 W7        29.88F

$$

OFFSHORE ISLANDS

CITY           SKY/WX    TMP DP  RH WIND       PRES   REMARKS
CATALINA ARPT  SUNNY     76  62  62 N5        29.97F
SAN NICOLAS IS PTSUNNY   82  68  62 E8        29.91F

$$

MARINE AND OFFSHORE BUOY REPORTS

STATION/POSITION SKY/WX   TEMP    WIND        PRES    SWELL
                          AIR SEA DIR/SP/G            HT/PER/DIR
                          (F)     (DEG/KT/KT) (MB)    (FT/S/D)
TANNER BANKS               64 63  200/  2/  4 1012.1F   7/300/ 9
S CLEMENTE BASIN           68 71  190/  2/  4 1012.4F   5/150/15
SAN NICOLAS IS.               61                N/A     3/180/13
SO. S. ROSA ISLA           63 66  330/ 10/ 12 1013.3F   7/310/ 9
W. S. BARBARA CH           56 58  300/ 12/ 14 1013.5F   5/300/ 9
M. S. BARBARA CH                   50/  8/ 10 1013.8F
S. MONICA BASIN            70 72  150/ 10/ 12 1013.1F   3/160/14
S PEDRO CHANNEL               72                N/A     2/200/15
OCEANSIDE OFFSHR              76                N/A     2/180/13
TORREY PINES OTR              74                N/A     2/210/13
LA JOLLA 1                 71 76  260/  8/ 10 1013.0F
SAN DIEGO BAY                 78              1013.3F
POINT LOMA SOUTH              73                N/A     3/190/13

$$





USA.gov is the U.S. government's official web portal to all federal, state and local government web resources and services.